Terminal Aerodrome Forecast
Issued by NWS

Home | Current Version | Previous Version | Graphics & Text | Print | Product List | Glossary On
Versions: 1 2 3 4 5 6 7 8 9 10 11 12
000
FTUS43 KBIS 202300
TAFJMS
TAF
KJMS 202320Z 2100/2124 13006KT P6SM SKC
     FM210800 13009KT P6SM SKC WS020/16045KT
     FM211500 15018G29KT P6SM FEW250=

USA.gov is the U.S. government's official web portal to all federal, state and local government web resources and services.